Home > Weather > Charleston > Past weeks

Flag for U.S.A. Weather for the Past 2 Weeks in Charleston, West Virginia, U.S.A.

Now
25 °F

Light snow. Mostly cloudy.


Feels Like: 14 °F
Forecast: 28 / 32 °F
Wind: 13 mph from Southwest

Location: Yeager Airport

Current Time: Feb 9, 2016 at 2:04:56 PM

Latest Report: Feb 9, 2016 at 12:54 PM


Visibility: 9 mi

Pressure: 29.74 "Hg

Humidity: 63%

Dew point: 14 °F

Location of CharlestonLocation

Historic Weather in Charleston — Graph

°F

Charleston Temperature Yesterday

Maximum temperature yesterday: 46 °F (at 1:54 PM)
Minimum temperature yesterday: 31 °F (at 2:54 AM)
Average temperature yesterday: 36 °F

High & Low Weather Summary for the Past Weeks

 TemperatureHumidityPressure
High67 °F (Feb 3, 3:54 PM)97% (Jan 26, 8:54 PM)30.48 "Hg (Jan 26, 8:54 PM)
Low16 °F (Jan 28, 7:54 AM)22% (Jan 25, 2:54 PM)29.59 "Hg (Feb 8, 2:54 PM)
Average40 °F64%30.01 "Hg
* Reported Jan 25 12:54 PM — Feb 9 12:54 PM, Charleston, Weather by CustomWeather, © 2016

Note: Actual official high and low records may vary slightly from our data, if they occured in-between our weather recording intervals... More about our weather records

Advertising

Charleston Weather History for the Previous 24 Hours

 ConditionsComfort  
Time TempWeatherWind HumidityBarometerVisibility
12:54 PM
Tue, Feb 9
25 °FLight snow. Mostly cloudy.13 mph63%29.74 "Hg9 mi
11:54 AM26 °FPartly sunny.13 mph55%29.75 "Hg10 mi
10:54 AM25 °FLight snow. Partly sunny.8 mph60%29.76 "Hg10 mi
9:57 AM25 °FLight snow. Mostly cloudy.7 mph75%29.74 "Hg2 mi
8:54 AM25 °FLight snow. Partly sunny.5 mph78%29.75 "Hg1 mi
7:54 AM24 °FLight snow. Mostly cloudy.13 mph81%29.74 "Hg1 mi
6:54 AM26 °FLight snow. Mostly cloudy.10 mph77%29.71 "Hg6 mi
6:03 AM26 °FLight snow. Mostly cloudy.8 mph81%29.67 "Hg5 mi
5:01 AM27 °FLight snow. Ice fog.10 mph85%29.65 "Hg2 mi
3:54 AM29 °FLight snow. Ice fog.10 mph85%29.65 "Hg1 mi
2:54 AM31 °FLight snow. Ice fog.10 mph89%29.64 "Hg1 mi
1:54 AM32 °FLight snow. Ice fog.8 mph88%29.64 "Hg1 mi
12:54 AM34 °FLight snow. Mostly cloudy.10 mph79%29.65 "Hg8 mi
11:54 PM
Mon, Feb 8
34 °FMostly cloudy.10 mph82%29.65 "Hg10 mi
10:54 PM34 °FOvercast.9 mph85%29.66 "Hg10 mi
9:54 PM35 °FMostly cloudy.8 mph82%29.67 "Hg10 mi
8:54 PM34 °FMostly cloudy.7 mph85%29.68 "Hg10 mi
7:54 PM34 °FMostly cloudy.8 mph88%29.69 "Hg10 mi
6:54 PM34 °FMostly cloudy.10 mph88%29.69 "Hg7 mi
5:54 PM33 °FLight snow. Fog.8 mph92%29.68 "Hg1 mi
4:54 PM34 °FSnow. Fog.23 mph85%29.66 "Hg0 mi
3:54 PM44 °FBroken clouds.8 mph49%29.60 "Hg10 mi
2:54 PM46 °FBroken clouds.5 mph48%29.59 "Hg10 mi
Weather by CustomWeather, © 2016

See weather overviewHow to use our weather pages